Time,TemperatureF,DewpointF,PressureIn,WindDirection,WindDirectionDegrees,WindSpeedMPH,WindSpeedGustMPH,Humidity,HourlyPrecipIn,Conditions,Clouds,dailyrainin,SolarRadiationWatts/m^2,SoftwareType,DateUTC
2013-03-28 00:02:00,29.5,34.9,30.24,WNW,296,0.0,2.0,25,0.00,,,0.01,0.0,meteohub,2013-03-28 04:02:00,
2013-03-28 00:07:00,29.5,33.8,30.23,NW,316,0.0,3.0,24,0.00,,,0.00,0.0,meteohub,2013-03-28 04:07:00,
2013-03-28 00:12:00,29.5,33.8,30.23,SW,232,0.0,3.0,24,0.00,,,0.00,0.0,meteohub,2013-03-28 04:12:00,
2013-03-28 00:17:00,29.3,33.8,30.23,WNW,286,0.0,3.0,24,0.00,,,0.00,0.0,meteohub,2013-03-28 04:17:00,
2013-03-28 00:22:00,29.1,33.4,30.23,WNW,287,0.0,3.0,24,0.00,,,0.00,0.0,meteohub,2013-03-28 04:22:00,
2013-03-28 00:32:00,29.1,33.4,30.23,NW,317,0.0,2.0,24,0.00,,,0.00,0.0,meteohub,2013-03-28 04:32:00,
2013-03-28 00:37:00,28.9,33.4,30.23,North,350,0.0,2.0,24,0.00,,,0.00,0.0,meteohub,2013-03-28 04:37:00,
2013-03-28 00:42:00,28.8,33.4,30.23,North,350,0.0,2.0,24,0.00,,,0.00,0.0,meteohub,2013-03-28 04:42:00,
2013-03-28 00:47:00,28.8,33.4,30.23,North,349,0.0,2.0,24,0.00,,,0.00,0.0,meteohub,2013-03-28 04:47:00,
2013-03-28 00:52:00,28.6,33.4,30.23,North,349,2.0,2.0,24,0.00,,,0.00,0.0,meteohub,2013-03-28 04:52:00,
2013-03-28 01:02:00,28.4,33.4,30.23,West,277,2.0,2.0,24,0.00,,,0.00,0.0,meteohub,2013-03-28 05:02:00,
2013-03-28 01:07:00,28.6,33.4,30.23,NNW,329,1.0,2.0,24,0.00,,,0.00,0.0,meteohub,2013-03-28 05:07:00,
2013-03-28 01:17:00,28.2,33.4,30.23,North,351,2.0,3.0,24,0.00,,,0.00,0.0,meteohub,2013-03-28 05:17:00,
2013-03-28 01:22:00,28.2,33.4,30.23,NW,319,0.0,4.0,24,0.00,,,0.00,0.0,meteohub,2013-03-28 05:22:00,
2013-03-28 01:27:00,28.2,33.4,30.23,NW,305,3.0,4.0,24,0.00,,,0.00,0.0,meteohub,2013-03-28 05:27:00,
2013-03-28 01:32:00,28.2,33.4,30.23,WNW,283,0.0,4.0,24,0.00,,,0.00,0.0,meteohub,2013-03-28 05:32:00,
2013-03-28 01:37:00,28.0,33.4,30.23,NW,311,3.0,4.0,24,0.00,,,0.00,0.0,meteohub,2013-03-28 05:37:00,
2013-03-28 01:42:00,28.0,33.4,30.23,NW,309,0.0,4.0,24,0.00,,,0.00,0.0,meteohub,2013-03-28 05:42:00,
2013-03-28 01:52:00,28.0,33.4,30.22,West,281,0.0,4.0,24,0.00,,,0.00,0.0,meteohub,2013-03-28 05:52:00,
2013-03-28 01:57:00,27.9,33.4,30.22,WNW,295,0.0,3.0,24,0.00,,,0.00,0.0,meteohub,2013-03-28 05:57:00,
2013-03-28 02:07:00,27.9,33.4,30.22,NW,309,0.0,3.0,24,0.00,,,0.00,0.0,meteohub,2013-03-28 06:07:00,
2013-03-28 02:12:00,27.9,33.4,30.22,NW,308,0.0,3.0,24,0.00,,,0.00,0.0,meteohub,2013-03-28 06:12:00,
2013-03-28 02:17:00,27.9,33.4,30.23,NW,308,0.0,2.0,24,0.00,,,0.00,0.0,meteohub,2013-03-28 06:17:00,
2013-03-28 02:27:00,27.7,33.4,30.22,NW,308,0.0,2.0,24,0.00,,,0.00,0.0,meteohub,2013-03-28 06:27:00,
2013-03-28 02:37:00,27.7,33.4,30.22,West,277,0.0,2.0,24,0.00,,,0.00,0.0,meteohub,2013-03-28 06:37:00,
2013-03-28 02:42:00,27.5,33.4,30.22,West,277,0.0,2.0,24,0.00,,,0.00,0.0,meteohub,2013-03-28 06:42:00,
2013-03-28 02:52:00,27.5,33.4,30.22,West,277,0.0,2.0,24,0.00,,,0.00,0.0,meteohub,2013-03-28 06:52:00,
2013-03-28 02:57:00,27.5,33.4,30.22,West,277,0.0,2.0,24,0.00,,,0.00,0.0,meteohub,2013-03-28 06:57:00,
2013-03-28 03:07:00,27.1,33.4,30.22,West,277,0.0,1.0,24,0.00,,,0.00,0.0,meteohub,2013-03-28 07:07:00,
2013-03-28 03:17:00,27.0,33.4,30.22,West,277,0.0,1.0,24,0.00,,,0.00,0.0,meteohub,2013-03-28 07:17:00,
2013-03-28 03:22:00,27.0,33.4,30.22,NW,309,0.0,1.0,24,0.00,,,0.00,0.0,meteohub,2013-03-28 07:22:00,
2013-03-28 03:27:00,27.1,33.4,30.22,NW,309,0.0,1.0,24,0.00,,,0.00,0.0,meteohub,2013-03-28 07:27:00,
2013-03-28 03:32:00,27.1,33.4,30.22,NW,321,0.0,1.0,24,0.00,,,0.00,0.0,meteohub,2013-03-28 07:32:00,
2013-03-28 03:42:00,27.3,33.4,30.22,NW,317,2.0,3.0,24,0.00,,,0.00,0.0,meteohub,2013-03-28 07:42:00,
2013-03-28 03:47:00,27.5,33.4,30.22,WNW,296,1.0,2.0,24,0.00,,,0.00,0.0,meteohub,2013-03-28 07:47:00,
2013-03-28 03:57:00,27.7,33.4,30.21,WNW,285,2.0,2.0,24,0.00,,,0.00,0.0,meteohub,2013-03-28 07:57:00,
2013-03-28 04:02:00,27.7,33.4,30.22,WNW,285,0.0,2.0,24,0.00,,,0.00,0.0,meteohub,2013-03-28 08:02:00,
2013-03-28 04:07:00,27.5,33.4,30.21,WNW,285,0.0,2.0,24,0.00,,,0.00,0.0,meteohub,2013-03-28 08:07:00,
2013-03-28 04:17:00,27.7,33.4,30.21,NW,318,0.0,3.0,24,0.00,,,0.00,0.0,meteohub,2013-03-28 08:17:00,
2013-03-28 04:22:00,27.7,33.4,30.22,NW,319,0.0,3.0,24,0.00,,,0.00,0.0,meteohub,2013-03-28 08:22:00,
2013-03-28 04:27:00,27.7,33.4,30.22,NW,319,1.0,3.0,24,0.00,,,0.00,0.0,meteohub,2013-03-28 08:27:00,
2013-03-28 04:32:00,27.9,33.4,30.22,South,171,0.0,2.0,24,0.00,,,0.00,0.0,meteohub,2013-03-28 08:32:00,
2013-03-28 04:37:00,27.7,33.4,30.22,South,171,0.0,2.0,24,0.00,,,0.00,0.0,meteohub,2013-03-28 08:37:00,
2013-03-28 04:42:00,27.1,32.4,30.22,South,171,0.0,2.0,23,0.00,,,0.00,0.0,meteohub,2013-03-28 08:42:00,
2013-03-28 04:47:00,26.8,33.4,30.22,South,171,0.0,2.0,24,0.00,,,0.00,0.0,meteohub,2013-03-28 08:47:00,
2013-03-28 04:52:00,26.2,32.4,30.22,South,171,0.0,0.0,23,0.00,,,0.00,0.0,meteohub,2013-03-28 08:52:00,
2013-03-28 04:57:00,25.9,32.4,30.22,South,171,0.0,1.0,23,0.00,,,0.00,0.0,meteohub,2013-03-28 08:57:00,
2013-03-28 05:02:00,26.1,32.4,30.22,West,259,0.0,2.0,23,0.00,,,0.00,0.0,meteohub,2013-03-28 09:02:00,
2013-03-28 05:07:00,25.9,32.4,30.22,West,259,0.0,2.0,23,0.00,,,0.00,0.0,meteohub,2013-03-28 09:07:00,
2013-03-28 05:12:00,25.7,32.4,30.22,West,259,0.0,2.0,23,0.00,,,0.00,0.0,meteohub,2013-03-28 09:12:00,
2013-03-28 05:17:00,25.5,32.4,30.22,West,259,0.0,0.0,23,0.00,,,0.00,0.0,meteohub,2013-03-28 09:17:00,
2013-03-28 05:27:00,25.7,32.4,30.22,West,259,0.0,1.0,23,0.00,,,0.00,0.0,meteohub,2013-03-28 09:27:00,
2013-03-28 05:32:00,25.9,32.4,30.22,West,273,0.0,3.0,23,0.00,,,0.00,0.0,meteohub,2013-03-28 09:32:00,
2013-03-28 05:37:00,25.5,32.4,30.22,WSW,240,0.0,3.0,23,0.00,,,0.00,0.0,meteohub,2013-03-28 09:37:00,
2013-03-28 05:42:00,25.2,32.4,30.22,WSW,240,0.0,3.0,23,0.00,,,0.00,0.0,meteohub,2013-03-28 09:42:00,
2013-03-28 05:52:00,25.2,32.4,30.22,WSW,240,0.0,0.0,23,0.00,,,0.00,0.0,meteohub,2013-03-28 09:52:00,
2013-03-28 05:57:00,24.8,32.4,30.23,WSW,240,0.0,0.0,23,0.00,,,0.00,0.0,meteohub,2013-03-28 09:57:00,
2013-03-28 06:02:00,24.6,32.4,30.23,WSW,240,0.0,0.0,23,0.00,,,0.00,0.0,meteohub,2013-03-28 10:02:00,
2013-03-28 06:07:00,24.4,32.4,30.23,WSW,240,0.0,0.0,23,0.00,,,0.00,0.0,meteohub,2013-03-28 10:07:00,
2013-03-28 06:12:00,24.6,34.5,30.23,WSW,240,0.0,1.0,25,0.00,,,0.00,0.0,meteohub,2013-03-28 10:12:00,
2013-03-28 06:17:00,25.0,32.4,30.23,WSW,240,0.0,1.0,23,0.00,,,0.00,0.0,meteohub,2013-03-28 10:17:00,
2013-03-28 06:22:00,25.2,32.4,30.23,WSW,240,0.0,1.0,23,0.00,,,0.00,0.0,meteohub,2013-03-28 10:22:00,
2013-03-28 06:32:00,25.2,32.4,30.23,WSW,240,0.0,1.0,23,0.00,,,0.00,0.0,meteohub,2013-03-28 10:32:00,
2013-03-28 06:37:00,25.0,32.4,30.24,WSW,240,0.0,0.0,23,0.00,,,0.00,0.0,meteohub,2013-03-28 10:37:00,
2013-03-28 06:42:00,24.8,32.4,30.24,SW,229,0.0,0.0,23,0.00,,,0.00,0.0,meteohub,2013-03-28 10:42:00,
2013-03-28 06:47:00,24.6,32.4,30.24,SW,229,0.0,1.0,23,0.00,,,0.00,0.0,meteohub,2013-03-28 10:47:00,
2013-03-28 06:52:00,24.6,32.4,30.24,South,190,0.0,1.0,23,0.00,,,0.00,0.0,meteohub,2013-03-28 10:52:00,
2013-03-28 06:57:00,24.6,33.4,30.24,South,190,0.0,1.0,24,0.00,,,0.00,0.0,meteohub,2013-03-28 10:57:00,
2013-03-28 07:02:00,24.4,33.4,30.24,South,190,0.0,1.0,24,0.00,,,0.00,0.0,meteohub,2013-03-28 11:02:00,
2013-03-28 07:07:00,24.4,33.4,30.24,South,190,0.0,1.0,24,0.00,,,0.00,0.0,meteohub,2013-03-28 11:07:00,
2013-03-28 07:17:00,24.4,33.4,30.25,South,171,0.0,1.0,24,0.00,,,0.00,0.0,meteohub,2013-03-28 11:17:00,
2013-03-28 07:22:00,24.4,33.4,30.25,South,171,0.0,1.0,24,0.00,,,0.00,0.0,meteohub,2013-03-28 11:22:00,
2013-03-28 07:27:00,24.6,33.4,30.25,SSE,163,0.0,1.0,24,0.00,,,0.00,7.0,meteohub,2013-03-28 11:27:00,
2013-03-28 07:37:00,24.8,33.4,30.25,ENE,73,0.0,3.0,24,0.00,,,0.00,18.0,meteohub,2013-03-28 11:37:00,
2013-03-28 07:42:00,24.8,33.4,30.25,ENE,64,0.0,3.0,24,0.00,,,0.00,23.0,meteohub,2013-03-28 11:42:00,
2013-03-28 07:52:00,25.2,33.4,30.26,SE,126,0.0,3.0,24,0.00,,,0.00,40.0,meteohub,2013-03-28 11:52:00,
2013-03-28 07:57:00,25.3,33.4,30.26,SE,141,0.0,2.0,24,0.00,,,0.00,53.0,meteohub,2013-03-28 11:57:00,
2013-03-28 08:02:00,25.9,32.4,30.26,SSE,149,0.0,1.0,23,0.00,,,0.00,77.0,meteohub,2013-03-28 12:02:00,
2013-03-28 08:12:00,26.6,33.4,30.27,SSW,196,1.0,4.0,24,0.00,,,0.00,114.0,meteohub,2013-03-28 12:12:00,
2013-03-28 08:17:00,27.0,33.4,30.27,SSE,165,0.0,4.0,24,0.00,,,0.00,137.0,meteohub,2013-03-28 12:17:00,
2013-03-28 08:22:00,27.1,33.4,30.26,SSE,165,0.0,4.0,24,0.00,,,0.00,141.0,meteohub,2013-03-28 12:22:00,
2013-03-28 08:32:00,28.0,34.5,30.27,SSE,165,0.0,3.0,25,0.00,,,0.00,185.0,meteohub,2013-03-28 12:32:00,
2013-03-28 08:37:00,28.6,34.9,30.27,SSE,165,0.0,2.0,25,0.00,,,0.00,199.0,meteohub,2013-03-28 12:37:00,
2013-03-28 08:42:00,28.9,34.9,30.27,SSE,165,0.0,1.0,25,0.00,,,0.00,211.0,meteohub,2013-03-28 12:42:00,
2013-03-28 08:47:00,29.3,35.1,30.27,SSE,165,1.0,1.0,25,0.00,,,0.00,239.0,meteohub,2013-03-28 12:47:00,
2013-03-28 08:52:00,30.0,35.1,30.27,SSE,165,0.0,2.0,25,0.00,,,0.00,251.0,meteohub,2013-03-28 12:52:00,
2013-03-28 08:57:00,30.4,35.1,30.27,SSE,165,0.0,2.0,25,0.00,,,0.00,213.0,meteohub,2013-03-28 12:57:00,
2013-03-28 09:02:00,30.7,35.1,30.27,West,266,2.0,3.0,25,0.00,,,0.00,288.0,meteohub,2013-03-28 13:02:00,
2013-03-28 09:07:00,30.7,35.2,30.27,SW,225,3.0,3.0,25,0.00,,,0.00,309.0,meteohub,2013-03-28 13:07:00,
2013-03-28 09:12:00,30.9,34.3,30.27,SSW,210,1.0,4.0,24,0.00,,,0.00,316.0,meteohub,2013-03-28 13:12:00,
2013-03-28 09:17:00,31.5,34.5,30.27,WSW,248,2.0,5.0,24,0.00,,,0.00,338.0,meteohub,2013-03-28 13:17:00,
2013-03-28 09:22:00,32.0,34.5,30.27,NW,321,4.0,5.0,24,0.00,,,0.00,355.0,meteohub,2013-03-28 13:22:00,
2013-03-28 09:27:00,32.5,34.5,30.27,WSW,257,7.0,11.0,24,0.00,,,0.00,376.0,meteohub,2013-03-28 13:27:00,
2013-03-28 09:32:00,33.1,34.5,30.27,North,349,4.0,11.0,24,0.00,,,0.00,394.0,meteohub,2013-03-28 13:32:00,
2013-03-28 09:37:00,33.4,34.5,30.27,NW,317,6.0,12.0,24,0.00,,,0.00,410.0,meteohub,2013-03-28 13:37:00,
2013-03-28 09:42:00,33.6,34.5,30.27,WNW,292,6.0,14.0,24,0.00,,,0.00,425.0,meteohub,2013-03-28 13:42:00,
2013-03-28 09:47:00,33.8,34.5,30.27,West,271,3.0,14.0,24,0.00,,,0.00,446.0,meteohub,2013-03-28 13:47:00,
2013-03-28 09:57:00,34.3,34.5,30.27,West,267,11.0,14.0,24,0.00,,,0.00,480.0,meteohub,2013-03-28 13:57:00,
2013-03-28 10:02:00,34.3,34.5,30.27,NW,309,3.0,13.0,24,0.00,,,0.00,499.0,meteohub,2013-03-28 14:02:00,
2013-03-28 10:07:00,35.1,34.5,30.27,WNW,285,12.0,13.0,24,0.00,,,0.00,519.0,meteohub,2013-03-28 14:07:00,
2013-03-28 10:12:00,35.1,34.7,30.27,NNW,342,6.0,17.0,24,0.00,,,0.00,533.0,meteohub,2013-03-28 14:12:00,
2013-03-28 10:22:00,35.6,34.7,30.27,NW,304,3.0,16.0,24,0.00,,,0.00,570.0,meteohub,2013-03-28 14:22:00,
2013-03-28 10:27:00,36.1,34.7,30.27,NW,324,8.0,16.0,24,0.00,,,0.00,585.0,meteohub,2013-03-28 14:27:00,
2013-03-28 10:32:00,36.1,34.7,30.27,NNW,332,8.0,16.0,24,0.00,,,0.00,603.0,meteohub,2013-03-28 14:32:00,
2013-03-28 10:37:00,36.3,34.9,30.27,WNW,284,9.0,18.0,24,0.00,,,0.00,621.0,meteohub,2013-03-28 14:37:00,
2013-03-28 10:42:00,36.7,34.9,30.27,WNW,288,12.0,18.0,24,0.00,,,0.00,636.0,meteohub,2013-03-28 14:42:00,
2013-03-28 10:47:00,36.7,34.9,30.27,NW,322,5.0,16.0,24,0.00,,,0.00,649.0,meteohub,2013-03-28 14:47:00,
2013-03-28 10:57:00,37.0,34.9,30.27,WNW,284,11.0,16.0,24,0.00,,,0.00,679.0,meteohub,2013-03-28 14:57:00,
2013-03-28 11:07:00,37.8,34.9,30.27,NW,310,6.0,14.0,24,0.00,,,0.00,710.0,meteohub,2013-03-28 15:07:00,
2013-03-28 11:12:00,37.9,35.1,30.27,NNW,336,12.0,15.0,24,0.00,,,0.00,722.0,meteohub,2013-03-28 15:12:00,
2013-03-28 11:17:00,37.9,35.1,30.27,WNW,295,8.0,16.0,24,0.00,,,0.00,735.0,meteohub,2013-03-28 15:17:00,
2013-03-28 11:27:00,38.1,35.1,30.27,NNW,343,5.0,21.0,24,0.00,,,0.00,759.0,meteohub,2013-03-28 15:27:00,
2013-03-28 11:32:00,38.7,35.1,30.27,NW,317,10.0,21.0,24,0.00,,,0.00,770.0,meteohub,2013-03-28 15:32:00,
2013-03-28 11:37:00,39.6,35.2,30.27,North,5,9.0,16.0,24,0.00,,,0.00,784.0,meteohub,2013-03-28 15:37:00,
2013-03-28 11:42:00,39.4,34.2,30.27,West,260,5.0,12.0,23,0.00,,,0.00,795.0,meteohub,2013-03-28 15:42:00,
2013-03-28 11:47:00,39.6,34.2,30.27,WNW,302,9.0,16.0,23,0.00,,,0.00,805.0,meteohub,2013-03-28 15:47:00,
2013-03-28 11:52:00,39.7,34.0,30.27,NW,321,6.0,16.0,23,0.00,,,0.00,814.0,meteohub,2013-03-28 15:52:00,
2013-03-28 12:02:00,39.9,34.2,30.27,NNW,327,4.0,15.0,23,0.00,,,0.00,833.0,meteohub,2013-03-28 16:02:00,
2013-03-28 12:12:00,41.2,35.2,30.26,WSW,240,14.0,14.0,24,0.00,,,0.00,854.0,meteohub,2013-03-28 16:12:00,
2013-03-28 12:22:00,41.0,35.4,30.26,NW,306,8.0,17.0,24,0.00,,,0.00,868.0,meteohub,2013-03-28 16:22:00,
2013-03-28 12:27:00,41.2,35.4,30.26,West,273,9.0,17.0,24,0.00,,,0.00,875.0,meteohub,2013-03-28 16:27:00,
2013-03-28 12:37:00,41.4,35.6,30.25,North,355,20.0,20.0,24,0.00,,,0.00,889.0,meteohub,2013-03-28 16:37:00,
2013-03-28 12:42:00,41.7,34.7,30.25,North,5,9.0,20.0,23,0.00,,,0.00,895.0,meteohub,2013-03-28 16:42:00,
2013-03-28 12:47:00,42.1,34.7,30.25,West,281,9.0,20.0,23,0.00,,,0.00,900.0,meteohub,2013-03-28 16:47:00,
2013-03-28 12:57:00,43.3,34.7,30.25,NNW,331,2.0,14.0,23,0.00,,,0.00,912.0,meteohub,2013-03-28 16:57:00,
2013-03-28 13:02:00,43.3,34.7,30.25,West,266,6.0,15.0,23,0.00,,,0.00,914.0,meteohub,2013-03-28 17:02:00,
2013-03-28 13:07:00,43.9,34.9,30.25,NNW,339,7.0,15.0,23,0.00,,,0.00,919.0,meteohub,2013-03-28 17:07:00,
2013-03-28 13:17:00,43.9,34.9,30.24,West,263,6.0,15.0,23,0.00,,,0.00,925.0,meteohub,2013-03-28 17:17:00,
2013-03-28 13:22:00,44.1,34.9,30.24,WNW,292,6.0,15.0,23,0.00,,,0.00,926.0,meteohub,2013-03-28 17:22:00,
2013-03-28 13:27:00,44.2,36.1,30.24,NNW,347,8.0,15.0,24,0.00,,,0.00,930.0,meteohub,2013-03-28 17:27:00,
2013-03-28 13:32:00,44.1,36.1,30.24,West,271,5.0,15.0,24,0.00,,,0.00,930.0,meteohub,2013-03-28 17:32:00,
2013-03-28 13:42:00,45.0,36.0,30.24,NW,310,1.0,15.0,24,0.00,,,0.00,939.0,meteohub,2013-03-28 17:42:00,
2013-03-28 13:52:00,45.1,36.0,30.24,NW,305,0.0,16.0,24,0.00,,,0.00,932.0,meteohub,2013-03-28 17:52:00,
2013-03-28 13:57:00,45.7,36.0,30.24,WNW,290,12.0,16.0,24,0.00,,,0.00,933.0,meteohub,2013-03-28 17:57:00,
2013-03-28 14:02:00,45.3,36.0,30.24,West,277,10.0,17.0,24,0.00,,,0.00,930.0,meteohub,2013-03-28 18:02:00,
2013-03-28 14:07:00,45.9,36.0,30.24,NW,314,4.0,17.0,24,0.00,,,0.00,926.0,meteohub,2013-03-28 18:07:00,
2013-03-28 14:12:00,46.2,36.0,30.24,NW,304,5.0,17.0,24,0.00,,,0.00,925.0,meteohub,2013-03-28 18:12:00,
2013-03-28 14:17:00,46.0,34.9,30.23,West,269,14.0,17.0,23,0.00,,,0.00,925.0,meteohub,2013-03-28 18:17:00,
2013-03-28 14:22:00,46.2,35.1,30.23,West,274,7.0,17.0,23,0.00,,,0.00,921.0,meteohub,2013-03-28 18:22:00,
2013-03-28 14:27:00,46.0,36.1,30.24,NW,306,9.0,16.0,24,0.00,,,0.00,919.0,meteohub,2013-03-28 18:27:00,
2013-03-28 14:32:00,46.8,36.1,30.23,ENE,73,2.0,16.0,24,0.00,,,0.00,912.0,meteohub,2013-03-28 18:32:00,
2013-03-28 14:42:00,46.2,36.0,30.23,NNW,343,5.0,16.0,24,0.00,,,0.00,904.0,meteohub,2013-03-28 18:42:00,
2013-03-28 14:47:00,46.6,36.0,30.23,North,5,3.0,21.0,24,0.00,,,0.00,895.0,meteohub,2013-03-28 18:47:00,
2013-03-28 14:57:00,46.6,34.9,30.23,West,273,5.0,16.0,23,0.00,,,0.00,884.0,meteohub,2013-03-28 18:57:00,
2013-03-28 15:02:00,46.6,34.9,30.23,West,264,11.0,16.0,23,0.00,,,0.00,875.0,meteohub,2013-03-28 19:02:00,
2013-03-28 15:07:00,47.1,34.9,30.22,West,271,8.0,16.0,23,0.00,,,0.00,868.0,meteohub,2013-03-28 19:07:00,
2013-03-28 15:17:00,47.1,34.7,30.22,NW,309,7.0,17.0,23,0.00,,,0.00,853.0,meteohub,2013-03-28 19:17:00,
2013-03-28 15:22:00,46.9,34.9,30.22,WSW,244,6.0,17.0,23,0.00,,,0.00,847.0,meteohub,2013-03-28 19:22:00,
2013-03-28 15:32:00,47.1,34.9,30.21,SSW,210,9.0,20.0,23,0.00,,,0.00,824.0,meteohub,2013-03-28 19:32:00,
2013-03-28 15:37:00,48.0,34.9,30.21,West,275,3.0,20.0,23,0.00,,,0.00,816.0,meteohub,2013-03-28 19:37:00,
2013-03-28 15:42:00,47.7,34.9,30.21,West,275,8.0,18.0,23,0.00,,,0.00,805.0,meteohub,2013-03-28 19:42:00,
2013-03-28 15:47:00,47.7,34.9,30.21,NW,309,9.0,18.0,23,0.00,,,0.00,796.0,meteohub,2013-03-28 19:47:00,
2013-03-28 15:57:00,47.7,34.9,30.20,NW,311,5.0,14.0,23,0.00,,,0.00,777.0,meteohub,2013-03-28 19:57:00,
2013-03-28 16:02:00,47.8,34.9,30.20,NW,313,7.0,13.0,23,0.00,,,0.00,761.0,meteohub,2013-03-28 20:02:00,
2013-03-28 16:12:00,47.7,33.6,30.20,West,276,12.0,17.0,22,0.00,,,0.00,735.0,meteohub,2013-03-28 20:12:00,
2013-03-28 16:22:00,47.7,33.6,30.20,NW,319,11.0,16.0,22,0.00,,,0.00,708.0,meteohub,2013-03-28 20:22:00,
2013-03-28 16:27:00,47.8,33.4,30.20,WNW,295,8.0,15.0,22,0.00,,,0.00,696.0,meteohub,2013-03-28 20:27:00,
2013-03-28 16:32:00,47.7,33.4,30.20,West,278,4.0,13.0,22,0.00,,,0.00,684.0,meteohub,2013-03-28 20:32:00,
2013-03-28 16:37:00,47.5,33.4,30.20,West,280,4.0,17.0,22,0.00,,,0.00,666.0,meteohub,2013-03-28 20:37:00,
2013-03-28 16:42:00,47.8,33.3,30.20,SW,225,3.0,17.0,22,0.00,,,0.00,647.0,meteohub,2013-03-28 20:42:00,
2013-03-28 16:52:00,47.7,33.3,30.20,WNW,295,8.0,18.0,22,0.00,,,0.00,613.0,meteohub,2013-03-28 20:52:00,
2013-03-28 17:02:00,47.1,33.3,30.20,West,260,8.0,18.0,22,0.00,,,0.00,585.0,meteohub,2013-03-28 21:02:00,
2013-03-28 17:07:00,47.1,33.3,30.19,NW,307,9.0,18.0,22,0.00,,,0.00,564.0,meteohub,2013-03-28 21:07:00,
2013-03-28 17:12:00,46.8,33.1,30.20,WNW,298,2.0,15.0,22,0.00,,,0.00,548.0,meteohub,2013-03-28 21:12:00,
2013-03-28 17:17:00,46.8,33.1,30.20,WNW,286,7.0,15.0,22,0.00,,,0.00,527.0,meteohub,2013-03-28 21:17:00,
2013-03-28 17:22:00,46.8,33.1,30.20,NW,306,5.0,14.0,22,0.00,,,0.00,506.0,meteohub,2013-03-28 21:22:00,
2013-03-28 17:27:00,46.6,33.1,30.20,West,271,6.0,14.0,22,0.00,,,0.00,494.0,meteohub,2013-03-28 21:27:00,
2013-03-28 17:32:00,46.8,31.8,30.20,WSW,247,9.0,14.0,21,0.00,,,0.00,473.0,meteohub,2013-03-28 21:32:00,
2013-03-28 17:37:00,46.6,31.8,30.20,NNW,348,4.0,16.0,21,0.00,,,0.00,457.0,meteohub,2013-03-28 21:37:00,
2013-03-28 17:47:00,46.0,33.1,30.20,North,5,10.0,20.0,22,0.00,,,0.00,417.0,meteohub,2013-03-28 21:47:00,
2013-03-28 17:52:00,45.9,33.1,30.20,West,281,8.0,20.0,22,0.00,,,0.00,396.0,meteohub,2013-03-28 21:52:00,
2013-03-28 17:57:00,46.0,33.1,30.20,West,269,10.0,20.0,22,0.00,,,0.00,376.0,meteohub,2013-03-28 21:57:00,
2013-03-28 18:02:00,46.0,32.9,30.21,West,262,4.0,17.0,22,0.00,,,0.00,357.0,meteohub,2013-03-28 22:02:00,
2013-03-28 18:12:00,46.0,32.9,30.21,NW,314,8.0,15.0,22,0.00,,,0.00,320.0,meteohub,2013-03-28 22:12:00,
2013-03-28 18:22:00,45.7,32.9,30.21,NW,305,12.0,16.0,22,0.00,,,0.00,281.0,meteohub,2013-03-28 22:22:00,
2013-03-28 18:27:00,45.7,32.7,30.21,WNW,295,9.0,16.0,22,0.00,,,0.00,260.0,meteohub,2013-03-28 22:27:00,
2013-03-28 18:32:00,45.5,32.7,30.21,WNW,287,5.0,16.0,22,0.00,,,0.00,239.0,meteohub,2013-03-28 22:32:00,
2013-03-28 18:37:00,45.5,32.7,30.21,North,5,5.0,15.0,22,0.00,,,0.00,218.0,meteohub,2013-03-28 22:37:00,
2013-03-28 18:42:00,45.7,32.7,30.21,WNW,282,4.0,14.0,22,0.00,,,0.00,197.0,meteohub,2013-03-28 22:42:00,
2013-03-28 18:47:00,45.7,32.7,30.22,WNW,283,8.0,13.0,22,0.00,,,0.00,178.0,meteohub,2013-03-28 22:47:00,
2013-03-28 18:52:00,45.7,33.6,30.22,West,281,8.0,13.0,23,0.00,,,0.00,153.0,meteohub,2013-03-28 22:52:00,
2013-03-28 18:57:00,45.3,33.6,30.22,WNW,293,9.0,13.0,23,0.00,,,0.00,132.0,meteohub,2013-03-28 22:57:00,
2013-03-28 19:07:00,44.8,33.6,30.22,WNW,298,9.0,14.0,23,0.00,,,0.00,91.0,meteohub,2013-03-28 23:07:00,
2013-03-28 19:17:00,44.4,33.6,30.22,WNW,299,5.0,15.0,23,0.00,,,0.00,60.0,meteohub,2013-03-28 23:17:00,
2013-03-28 19:22:00,44.2,33.4,30.22,WNW,285,6.0,15.0,23,0.00,,,0.00,44.0,meteohub,2013-03-28 23:22:00,
2013-03-28 19:32:00,43.9,33.4,30.22,NW,325,3.0,12.0,23,0.00,,,0.00,21.0,meteohub,2013-03-28 23:32:00,
2013-03-28 19:37:00,43.3,33.4,30.22,NNW,346,3.0,10.0,23,0.00,,,0.00,14.0,meteohub,2013-03-28 23:37:00,
2013-03-28 19:47:00,42.8,33.4,30.23,NW,321,7.0,8.0,23,0.00,,,0.00,7.0,meteohub,2013-03-28 23:47:00,
2013-03-28 19:52:00,42.6,33.4,30.23,NW,314,0.0,9.0,23,0.00,,,0.00,5.0,meteohub,2013-03-28 23:52:00,
2013-03-28 20:02:00,41.9,33.4,30.23,NNW,343,1.0,8.0,23,0.00,,,0.00,0.0,meteohub,2013-03-29 00:02:00,
2013-03-28 20:07:00,41.7,33.4,30.23,NNE,19,2.0,5.0,23,0.00,,,0.00,0.0,meteohub,2013-03-29 00:07:00,
2013-03-28 20:17:00,41.2,33.4,30.24,North,355,1.0,5.0,23,0.00,,,0.00,0.0,meteohub,2013-03-29 00:17:00,
2013-03-28 20:22:00,40.8,33.4,30.24,North,9,2.0,4.0,23,0.00,,,0.00,0.0,meteohub,2013-03-29 00:22:00,
2013-03-28 20:32:00,40.6,33.4,30.24,NE,36,0.0,5.0,23,0.00,,,0.00,0.0,meteohub,2013-03-29 00:32:00,
2013-03-28 20:37:00,40.6,33.3,30.24,NNW,335,3.0,5.0,23,0.00,,,0.00,0.0,meteohub,2013-03-29 00:37:00,
2013-03-28 20:47:00,40.3,33.3,30.24,North,5,0.0,4.0,23,0.00,,,0.00,0.0,meteohub,2013-03-29 00:47:00,
2013-03-28 20:57:00,39.9,33.3,30.25,NE,55,1.0,3.0,23,0.00,,,0.00,0.0,meteohub,2013-03-29 00:57:00,
2013-03-28 21:02:00,39.7,33.3,30.25,NE,55,1.0,3.0,23,0.00,,,0.00,0.0,meteohub,2013-03-29 01:02:00,
2013-03-28 21:07:00,39.7,33.3,30.25,NNE,33,1.0,4.0,23,0.00,,,0.00,0.0,meteohub,2013-03-29 01:07:00,
2013-03-28 21:17:00,38.8,33.3,30.25,NNE,33,0.0,4.0,23,0.00,,,0.00,0.0,meteohub,2013-03-29 01:17:00,
2013-03-28 21:27:00,37.6,33.1,30.25,NNE,33,0.0,2.0,23,0.00,,,0.00,0.0,meteohub,2013-03-29 01:27:00,
2013-03-28 21:37:00,37.0,33.1,30.25,NNE,33,0.0,0.0,23,0.00,,,0.00,0.0,meteohub,2013-03-29 01:37:00,
2013-03-28 21:42:00,36.9,33.1,30.25,NNE,33,0.0,0.0,23,0.00,,,0.00,0.0,meteohub,2013-03-29 01:42:00,
2013-03-28 21:47:00,36.5,33.1,30.25,NNE,33,0.0,0.0,23,0.00,,,0.00,0.0,meteohub,2013-03-29 01:47:00,
2013-03-28 21:57:00,36.1,33.1,30.26,NNE,33,0.0,0.0,23,0.00,,,0.00,0.0,meteohub,2013-03-29 01:57:00,
2013-03-28 22:02:00,35.8,33.1,30.26,NNE,33,0.0,1.0,23,0.00,,,0.00,0.0,meteohub,2013-03-29 02:02:00,
2013-03-28 22:07:00,35.4,33.1,30.26,NNE,33,0.0,1.0,23,0.00,,,0.00,0.0,meteohub,2013-03-29 02:07:00,
2013-03-28 22:12:00,35.4,33.1,30.26,NNE,33,0.0,1.0,23,0.00,,,0.00,0.0,meteohub,2013-03-29 02:12:00,
2013-03-28 22:17:00,34.9,33.1,30.26,SSE,153,0.0,2.0,23,0.00,,,0.00,0.0,meteohub,2013-03-29 02:17:00,
2013-03-28 22:22:00,34.2,33.1,30.26,SSE,152,0.0,2.0,23,0.00,,,0.00,0.0,meteohub,2013-03-29 02:22:00,
2013-03-28 22:27:00,34.2,33.1,30.26,SSE,152,0.0,2.0,23,0.00,,,0.00,0.0,meteohub,2013-03-29 02:27:00,
2013-03-28 22:32:00,34.3,33.1,30.26,SSE,152,0.0,0.0,23,0.00,,,0.00,0.0,meteohub,2013-03-29 02:32:00,
2013-03-28 22:42:00,34.2,33.1,30.26,SSE,152,0.0,0.0,23,0.00,,,0.00,0.0,meteohub,2013-03-29 02:42:00,
2013-03-28 22:47:00,34.0,34.2,30.27,SSE,152,0.0,0.0,24,0.00,,,0.00,0.0,meteohub,2013-03-29 02:47:00,
2013-03-28 22:52:00,33.6,34.2,30.27,SSE,152,0.0,0.0,24,0.00,,,0.00,0.0,meteohub,2013-03-29 02:52:00,
2013-03-28 22:57:00,33.6,34.2,30.27,SSE,152,0.0,1.0,24,0.00,,,0.00,0.0,meteohub,2013-03-29 02:57:00,
2013-03-28 23:02:00,33.4,34.2,30.27,SSE,152,0.0,1.0,24,0.00,,,0.00,0.0,meteohub,2013-03-29 03:02:00,
2013-03-28 23:12:00,32.7,34.2,30.27,SSE,152,0.0,0.0,24,0.00,,,0.00,0.0,meteohub,2013-03-29 03:12:00,
2013-03-28 23:22:00,32.5,34.0,30.27,SSE,152,0.0,0.0,24,0.00,,,0.00,0.0,meteohub,2013-03-29 03:22:00,
2013-03-28 23:27:00,32.4,34.0,30.27,SSE,152,0.0,1.0,24,0.00,,,0.00,0.0,meteohub,2013-03-29 03:27:00,
2013-03-28 23:32:00,32.4,34.0,30.27,SSE,152,0.0,1.0,24,0.00,,,0.00,0.0,meteohub,2013-03-29 03:32:00,
2013-03-28 23:37:00,31.8,34.0,30.27,SSE,152,0.0,0.0,24,0.00,,,0.00,0.0,meteohub,2013-03-29 03:37:00,
2013-03-28 23:47:00,31.1,34.0,30.27,SSE,152,0.0,0.0,24,0.00,,,0.00,0.0,meteohub,2013-03-29 03:47:00,
2013-03-28 23:52:00,30.6,34.0,30.27,SSE,152,0.0,0.0,24,0.00,,,0.00,0.0,meteohub,2013-03-29 03:52:00,
2013-03-28 23:57:00,29.8,34.0,30.27,SSE,152,0.0,0.0,24,0.00,,,0.00,0.0,meteohub,2013-03-29 03:57:00,